Weather History for Morristown, NJ

Change the Weather History Date:

Friday, September 13, 2013

  Actual Average Record
Temperature  
Mean Temperature 66 °F -  
Max Temperature 73 °F 78 °F 95 °F (2005)
Min Temperature 59 °F 52 °F 35 °F (1943)
Cooling Degree Days 1    
Growing Degree Days 16 (Base 50)    
Moisture  
Dew Point 60 °F    
Average Humidity 79    
Maximum Humidity 94    
Minimum Humidity 53    
Precipitation  
Precipitation 0.03 in - - ()
Sea Level Pressure  
Sea Level Pressure 29.72 in    
Wind  
Wind Speed 3 mph (NNW)    
Max Wind Speed 14 mph    
Max Gust Speed 24 mph    
Visibility 8 miles    
Events Rain    
Averages and records for this station are not official NWS values.
T = Trace of Precipitation, MM = Missing Value Source: NWS Daily Summary

Daily Weather History Graph

Daily Weather History Graph

Search for Another Location

Airport:

Trip Planner

Search our weather history database for the weather conditions in past years. The results will help you decide how hot, cold, wet, or windy it might be!

Date:

Astronomy

Sep. 13, 2013 Rise Set
Actual Time 6:36 AM EDT 7:09 PM EDT
Civil Twilight 6:08 AM EDT 7:37 PM EDT
Nautical Twilight 5:36 AM EDT 8:09 PM EDT
Astronomical Twilight 5:02 AM EDT 8:43 PM EDT
Moon 2:58 PM EDT (9/13) 12:01 AM EDT (9/13)
Length of Visible Light 13h 28m
Length of Day
12h 33m
First Quarter, 61% of the Moon is Illuminated
Sep 13
First Quarter
Sep 19
Full
Sep 26
Last Quarter
Oct 4
New
Oct 11
First Quarter

Hourly Weather History & Observations

Time (EDT) Temp. Dew Point Humidity Pressure Visibility Wind Dir Wind Speed Gust Speed Precip Events Conditions
12:15 AM 69.8 °F 66.2 °F 88% 29.71 in 7.0 mi Calm Calm - N/A   Scattered Clouds
12:35 AM 69.8 °F 66.2 °F 88% 29.71 in 5.0 mi Calm Calm - N/A   Mostly Cloudy
12:55 AM 69.8 °F 66.2 °F 88% 29.70 in 5.0 mi Calm Calm - N/A   Overcast
1:15 AM 69.8 °F 66.2 °F 88% 29.70 in 4.0 mi Calm Calm - N/A   Overcast
1:35 AM 69.8 °F 66.2 °F 88% 29.69 in 4.0 mi Calm Calm - N/A   Overcast
1:55 AM 69.8 °F 66.2 °F 88% 29.68 in 10.0 mi WNW 3.5 mph - N/A   Overcast
2:15 AM 69.8 °F 66.2 °F 88% 29.68 in 7.0 mi NW 5.8 mph - N/A Rain Light Rain
2:35 AM 69.8 °F 66.2 °F 88% 29.67 in 10.0 mi NNW 4.6 mph - N/A Rain Light Rain
2:55 AM 69.8 °F 64.4 °F 83% 29.65 in 10.0 mi NE 3.5 mph - N/A   Light Drizzle
3:15 AM 69.8 °F 66.2 °F 88% 29.66 in 10.0 mi West 3.5 mph - 0.01 in Rain Rain
3:35 AM 68.0 °F 66.2 °F 94% 29.66 in 5.0 mi Calm Calm - 0.03 in Rain Light Rain
3:55 AM 68.0 °F 66.2 °F 94% 29.66 in 5.0 mi Calm Calm - N/A   Overcast
4:15 AM 68.0 °F 66.2 °F 94% 29.67 in 5.0 mi Calm Calm - N/A   Overcast
4:35 AM 68.0 °F 66.2 °F 94% 29.67 in 7.0 mi Calm Calm - N/A   Overcast
4:55 AM 68.0 °F 64.4 °F 88% 29.66 in 7.0 mi Calm Calm - N/A   Overcast
5:15 AM 68.0 °F 64.4 °F 88% 29.66 in 7.0 mi Calm Calm - N/A   Mostly Cloudy
5:35 AM 66.2 °F 64.4 °F 94% 29.66 in 5.0 mi Calm Calm - N/A   Scattered Clouds
5:55 AM 66.2 °F 64.4 °F 94% 29.67 in 3.0 mi Calm Calm - N/A   Clear
6:15 AM 66.2 °F 62.6 °F 88% 29.67 in 2.0 mi Calm Calm - N/A   Clear
6:35 AM 66.2 °F 62.6 °F 88% 29.69 in 5.0 mi Calm Calm - N/A   Scattered Clouds
6:45 AM 66.2 °F 62.6 °F 88% 29.69 in 10.0 mi NNW 3.5 mph - N/A   Mostly Cloudy
7:45 AM 66.2 °F 62.6 °F 88% 29.69 in 10.0 mi Calm Calm - N/A   Mostly Cloudy
8:45 AM 66.2 °F 60.8 °F 83% 29.69 in 10.0 mi Calm Calm - N/A   Mostly Cloudy
9:45 AM 69.8 °F 60.8 °F 73% 29.69 in 10.0 mi NW 6.9 mph 12.7 mph N/A   Mostly Cloudy
10:45 AM 66.2 °F 59.0 °F 78% 29.71 in 10.0 mi NW 5.8 mph - N/A   Mostly Cloudy
11:45 AM 68.0 °F 59.0 °F 73% 29.72 in 10.0 mi NW 6.9 mph - N/A   Overcast
12:45 PM 71.6 °F 59.0 °F 64% 29.70 in 10.0 mi WNW 9.2 mph - N/A   Mostly Cloudy
1:45 PM 73.4 °F 59.0 °F 61% 29.69 in 10.0 mi North 10.4 mph - N/A   Scattered Clouds
2:45 PM 73.4 °F 57.2 °F 57% 29.69 in 10.0 mi NW 11.5 mph 21.9 mph N/A   Mostly Cloudy
3:45 PM 73.4 °F 55.4 °F 53% 29.70 in 10.0 mi NNW 12.7 mph 24.2 mph N/A   Scattered Clouds
4:45 PM 71.6 °F 53.6 °F 53% 29.72 in 10.0 mi NNW 13.8 mph - N/A   Scattered Clouds
5:45 PM 68.0 °F 53.6 °F 60% 29.75 in 10.0 mi North 5.8 mph 19.6 mph N/A   Scattered Clouds
6:45 PM 66.2 °F 53.6 °F 64% 29.76 in 10.0 mi North 6.9 mph 15.0 mph N/A   Scattered Clouds
7:45 PM 62.6 °F 53.6 °F 72% 29.80 in 10.0 mi NNE 6.9 mph - N/A   Scattered Clouds
8:50 PM 60.8 °F 50.0 °F 68% 29.85 in 10.0 mi North 8.1 mph 18.4 mph N/A   Clear
9:45 PM 59.0 °F 50.0 °F 72% 29.87 in 10.0 mi NNW 6.9 mph - N/A   Clear
10:55 PM 60.8 °F 48.2 °F 63% 29.87 in 10.0 mi NNW 10.4 mph 18.4 mph N/A   Clear
11:15 PM 60.8 °F 48.2 °F 63% 29.87 in 10.0 mi NNW 8.1 mph - N/A   Clear
11:35 PM 59.0 °F 48.2 °F 67% 29.87 in 10.0 mi NNW 6.9 mph - N/A   Clear
11:55 PM 59.0 °F 48.2 °F 67% 29.88 in 10.0 mi North 3.5 mph - N/A   Clear